Location: Makanda
(37.6176°N, 89.2090°W)
Time: 23:06:10
(UTC+00:00)

Cosmos 1805 - Pass Details

Date: 23 September 2019
Orbit: 525 x 532 km, 82.5° (Epoch: 21 October)

Event Time Altitude Azimuth Distance (km) Brightness Sun altitude
Exits shadow 01:27:56 37° 53° (NE) 826 3.9 -19.2°
Drops below altitude 10° 01:30:44 10° 20° (NNE) 1,777 5.9 -19.7°
Sets 01:32:56 0° 14° (NNE) 2,670 6.9 -20.2°
